STARLINK-34399

Satellite information

Favourite Embed

Satellite Type and Status

PAYLOADIN ORBIT

Key statistics

Satellite STARLINK-34399 at a glance.

Uptime

30

Days in orbit

Revolutions

≈ 15.5

Per day

Orbit

LEO

Low Earth Orbit

Inclination

53.2

Latest

Satellite identification and parameters

Extended collection of information and parameters for STARLINK-34399.

Object identification

Identified? True

Debris? False

Object name: STARLINK-34399

International designator: 2025-130G

Object number (NORAD): 64444

Object ID (CCSDS): 64444

Country: UNITED STATES OF AMERICA (US)

Current information (Y/N): Y

RCS size: LARGE

Orbital parameters

Period: 92.942 minutes

Inclination: 53.16 deg

SMA: 6796.743 km

Apoapsis: 419.154 km

Periapsis: 418.062 km

RAAN: 106.2501 deg

Eccentricy: 0.0000804

Argument of periapsis: 98.349 deg

Mean anomaly: 261.7611 deg

Mean motion: 15.4935697 rev/day

Mean motion (dot): 0.00051992 rev/day2

B* drag term: 0.00093508 1/REarth

Two-line elements (TLE)

Creation date: July 18, 2025, 2:44 a.m.

Reference frame: TEME

Reference center: EARTH

Epoch: July 17, 2025, 6:26 p.m. UTC

TLE line 0: 0 STARLINK-34399

TLE line 1: 1 64444U 25130G 25198.76839683 .00051992 00000-0 93508-3 0 9992

TLE line 2: 2 64444 53.1600 106.2501 0000804 98.3490 261.7611 15.49356970 4646

Live tracking on map

Real-time ground track for satellite STARLINK-34399.

In-orbit conjunctions

There are no conjunctions computed for STARLINK-34399, at the moment. Check back to stay up to date, as we update our databases every day.

Go to all conjunctions

Associated space launch

A batch of 28 satellites for the Starlink mega-constellation - SpaceX's project for space-based Internet communication system.

STARLINK-34399 was lifted into orbit during the mission ‘Falcon 9 Block 5 | Starlink Group 10-18’, on board a Falcon 9 space rocket.

The launch took place on June 18, 2025, 5:55 a.m. from Space Launch Complex 40.

For more information about the launch, click the button.

Launch to space Falcon 9 Block 5 | Starlink Group 10-18
Falcon 9 Block 5 | Starlink Group 10-18

Agency: SpaceX

Status: Launch Successful

Launch date: June 18, 2025, 5:55 a.m. UTC

Rocket: Falcon 9

Launch pad: Space Launch Complex 40

Location: Cape Canaveral SFS, FL, USA

...

Latest news about this satellite

News about space launch
Live coverage: SpaceX to launch 28 Starlink satellites on Falcon 9 rocket from Cape Canaveral

The Starlink 10-18 mission will be SpaceX’s 75th Falcon 9 launch of 2025. It’s targeting liftoff from pad 40 at Cape Canaveral Space Force Station at 1:55 a.m. EDT (0555 UTC).


Newsletter sign-up

Weekly statistics, charts and insights to help you stay on top of the space industry.